Simultaneous Nadir Overpasses (SNOs) Predictions

Prediction of SNOs between METOP-C and LANDSAT-8 Satellite Orbit:

Table of predicted SNOs for the next 14.0 days since TLE Epoch: 9/17/2022
Index Date (METOP-C) Time (METOP-C) Lat,Lon (METOP-C) SZA (METOP-C ) Date (LANDSAT-8) Time (LANDSAT-8) Lat,Lon (LANDSAT-8) SZA (LANDSAT-8 ) Distance(km) Time Diff (sec)
1 09/17/2022 14:19:25 80.28, -9.90 79.15 09/17/2022 14:20:38 79.91, -8.18 78.97 53.26 73
2 09/17/2022 15:09:18 -81.20, 174.02 98.58 09/17/2022 15:09:20 -81.21, 174.16 98.55 2.65 2
3 09/17/2022 15:59:58 81.22, -18.12 81.51 09/17/2022 15:58:46 81.22, -18.08 81.48 0.75 72
4 09/20/2022 09:52:58 81.19, 72.56 82.46 09/20/2022 09:54:09 81.19, 72.55 82.49 0.22 71
5 09/20/2022 10:43:37 -81.20,-119.60 97.47 09/20/2022 10:43:35 -81.21,-119.50 97.46 1.89 2
6 09/23/2022 05:27:17 81.20, 139.21 83.60 09/23/2022 05:28:24 81.20, 139.13 83.62 1.43 67
7 09/23/2022 06:17:56 -81.21, -52.88 96.32 09/23/2022 06:17:50 -81.22, -52.89 96.32 0.56 6
8 09/26/2022 01:01:37 81.19,-154.55 84.70 09/26/2022 01:02:39 81.20,-154.39 84.75 2.98 62
9 09/26/2022 01:52:15 -81.22, 13.81 95.17 09/26/2022 01:52:05 -81.22, 13.62 95.19 3.22 10
10 09/28/2022 20:35:56 81.20, -87.98 85.83 09/28/2022 20:36:54 81.20, -88.01 85.85 0.57 58



Historial Predications of SNOs between METOP-C and LANDSAT-8
